Weather History for Lee's Summit, MO

Change the Weather History Date:

Saturday, January 5, 2013

  Actual Average (KMKC) Record (KMKC)
Temperature  
Mean Temperature 36 °F -  
Max Temperature 43 °F 38 °F 66 °F (2012)
Min Temperature 30 °F 21 °F 0 °F (2014)
Degree Days  
Heating Degree Days 28    
Moisture  
Dew Point 27 °F    
Average Humidity 69    
Maximum Humidity 76    
Minimum Humidity 62    
Precipitation  
Precipitation 0.00 in - - ()
Sea Level Pressure  
Sea Level Pressure 30.18 in    
Wind  
Wind Speed 12 mph (SW)    
Max Wind Speed 21 mph    
Max Gust Speed 29 mph    
Visibility 10 miles    
Events      
Averages and records for this station are not official NWS values.
T = Trace of Precipitation, MM = Missing Value Source: NWS Daily Summary

Daily Weather History Graph

Daily Weather History Graph

Search for Another Location

Airport:

Trip Planner

Search our weather history database for the weather conditions in past years. The results will help you decide how hot, cold, wet, or windy it might be!

Date:

Astronomy

Jan. 05, 2013 Rise Set
Actual Time 7:36 AM CST 5:09 PM CST
Civil Twilight 7:06 AM CST 5:39 PM CST
Nautical Twilight 6:33 AM CST 6:12 PM CST
Astronomical Twilight 6:01 AM CST 6:45 PM CST
Moon 12:45 AM CST (1/5) 11:58 AM CST (1/5)
Length of Visible Light 10h 32m
Length of Day
9h 33m
Last Quarter, 44% of the Moon is Illuminated
Jan 5
Last Quarter
Jan 11
New
Jan 18
First Quarter
Jan 26
Full
Feb 3
Last Quarter

Hourly Weather History & Observations

Time (CST) Temp. Windchill Dew Point Humidity Pressure Visibility Wind Dir Wind Speed Gust Speed Precip Events Conditions
1:53 AM 33.1 °F 24.4 °F 23.0 °F 66% 30.25 in 10.0 mi SW 11.5 mph - N/A   Clear
2:53 AM 32.0 °F 25.6 °F 21.9 °F 66% 30.24 in 10.0 mi SSW 6.9 mph - N/A   Clear
3:53 AM 30.9 °F 23.5 °F 21.9 °F 69% 30.24 in 10.0 mi SW 8.1 mph - N/A   Scattered Clouds
4:53 AM 34.0 °F 24.6 °F 24.1 °F 67% 30.22 in 10.0 mi SSW 13.8 mph - N/A   Overcast
5:53 AM 35.1 °F 27.4 °F 26.1 °F 70% 30.21 in 10.0 mi South 10.4 mph - 0.00 in   Overcast
6:53 AM 36.0 °F 29.0 °F 27.0 °F 70% 30.22 in 10.0 mi South 9.2 mph - N/A   Overcast
7:53 AM 34.0 °F 26.0 °F 27.0 °F 75% 30.22 in 10.0 mi South 10.4 mph - N/A   Overcast
8:53 AM 35.1 °F 26.9 °F 28.0 °F 76% 30.21 in 10.0 mi South 11.5 mph - N/A   Partly Cloudy
9:53 AM 37.0 °F 28.1 °F 28.9 °F 73% 30.22 in 10.0 mi SSW 15.0 mph 26.5 mph N/A   Overcast
10:53 AM 37.9 °F 29.6 °F 30.0 °F 73% 30.21 in 10.0 mi SW 13.8 mph 20.7 mph N/A   Overcast
11:53 AM 39.0 °F 31.4 °F 30.9 °F 73% 30.17 in 10.0 mi SSW 12.7 mph 21.9 mph N/A   Overcast
12:53 PM 42.1 °F 33.1 °F 30.9 °F 65% 30.12 in 10.0 mi SW 20.7 mph 28.8 mph N/A   Overcast
1:53 PM 43.0 °F 34.5 °F 30.9 °F 62% 30.09 in 10.0 mi SW 19.6 mph - N/A   Scattered Clouds
2:53 PM 42.1 °F 34.2 °F 30.0 °F 62% 30.09 in 10.0 mi SW 16.1 mph - N/A   Overcast
3:53 PM 42.1 °F 34.2 °F 30.0 °F 62% 30.10 in 10.0 mi SW 16.1 mph - N/A   Scattered Clouds
5:53 PM 39.0 °F 31.0 °F 30.0 °F 70% 30.11 in 10.0 mi SSW 13.8 mph - N/A   Clear
6:53 PM 37.9 °F 30.5 °F 30.0 °F 73% 30.13 in 10.0 mi SW 11.5 mph - N/A   Clear
7:53 PM 37.9 °F 30.0 °F 28.9 °F 70% 30.15 in 10.0 mi West 12.7 mph 20.7 mph N/A   Clear
8:53 PM 36.0 °F 28.5 °F 25.0 °F 64% 30.17 in 10.0 mi West 10.4 mph - N/A   Clear
9:53 PM 34.0 °F 26.6 °F 24.1 °F 67% 30.18 in 10.0 mi West 9.2 mph - N/A   Clear
10:53 PM 32.0 °F 24.8 °F 24.1 °F 73% 30.18 in 10.0 mi WSW 8.1 mph - N/A   Clear